FW5884 Weather Reports


time (UTC)temp
F
wind
direction
speed
knots
gust
knots
rain 1hr
in
rain 24hr
in
rain mn
in
humidity
%
barometer
mb
20260906073554 83 143 0.9 7.0 0.00 0.00 0.00 49 1021.8
20260906073055 83 88 0.0 1.7 0.00 0.00 0.00 50 1021.8
20260906072553 83 143 0.0 3.5 0.00 0.00 0.00 50 1021.8
20260906072052 84 172 0.0 3.5 0.00 0.00 0.00 49 1021.8
20260906071554 84 151 0.0 2.6 0.00 0.00 0.00 50 1021.7
20260906071053 84 69 0.0 2.6 0.00 0.00 0.00 47 1021.7
20260906070552 84 115 0.0 0.0 0.00 0.00 0.00 50 1021.7
20260906070056 83 129 0.0 0.0 0.00 0.00 0.00 51 1021.8
20260906065549 82 136 0.0 0.9 0.00 0.00 0.00 52 1021.7
20260906065047 82 143 0.0 0.9 0.00 0.00 0.00 51 1021.6
20260906064552 81 262 0.0 0.0 0.00 0.00 0.00 54 1021.6
20260906064047 81 262 0.0 0.0 0.00 0.00 0.00 54 1021.6
20260906063546 82 131 0.0 0.9 0.00 0.00 0.00 52 1021.6
20260906063046 81 114 0.0 0.9 0.00 0.00 0.00 54 1021.6
20260906062545 80 145 0.0 0.9 0.00 0.00 0.00 54 1021.6
20260906062043 80 59 0.0 0.9 0.00 0.00 0.00 54 1021.6
20260906061543 79 302 0.0 0.9 0.00 0.00 0.00 54 1021.6
20260906061042 80 135 0.0 0.0 0.00 0.00 0.00 53 1021.5
20260906060542 80 135 0.0 0.0 0.00 0.00 0.00 53 1021.6
20260906060040 79 135 0.0 0.0 0.00 0.00 0.00 57 1021.5
20260906055539 78 136 0.0 0.0 0.00 0.00 0.00 59 1021.4
20260906055040 79 136 0.0 0.0 0.00 0.00 0.00 57 1021.4
20260906054555 78 135 0.0 0.0 0.00 0.00 0.00 61 1021.3
20260906054037 78 136 0.0 0.0 0.00 0.00 0.00 64 1021.3
20260906053536 77 136 0.0 0.0 0.00 0.00 0.00 62 1021.3
20260906053034 75 136 0.0 0.0 0.00 0.00 0.00 64 1021.2
20260906052534 74 136 0.0 0.0 0.00 0.00 0.00 63 1021.2
20260906052033 73 136 0.0 0.0 0.00 0.00 0.00 66 1021.1
20260906051542 72 136 0.0 0.0 0.00 0.00 0.00 66 1021.1
20260906051033 71 136 0.0 0.9 0.00 0.00 0.00 67 1021.0
20260906050532 71 136 0.0 0.9 0.00 0.00 0.00 67 1021.1
20260906050035 71 84 0.0 0.0 0.00 0.00 0.00 68 1021.0
20260906045530 71 84 0.0 0.0 0.00 0.00 0.00 69 1021.0
20260906045030 71 84 0.0 0.0 0.00 0.00 0.00 68 1021.0
20260906044532 71 84 0.0 0.0 0.00 0.00 0.00 67 1020.9
20260906044028 72 84 0.0 0.0 0.00 0.00 0.00 66 1021.0
20260906043528 72 84 0.0 0.0 0.00 0.00 0.00 65 1020.9
20260906043030 72 84 0.0 0.0 0.00 0.00 0.00 65 1020.8
20260906042528 72 84 0.0 0.0 0.00 0.00 0.00 64 1020.8
20260906042027 72 84 0.0 0.0 0.00 0.00 0.00 64 1020.9
20260906041530 72 119 0.0 0.0 0.00 0.00 0.00 64 1020.8
20260906041029 73 302 0.0 0.0 0.00 0.00 0.00 64 1020.7
20260906040526 73 302 0.0 0.0 0.00 0.00 0.00 63 1020.7
20260906040049 73 302 0.0 0.0 0.00 0.00 0.00 63 1020.7
20260906035525 73 302 0.0 0.9 0.00 0.00 0.00 63 1020.7
20260906035028 73 302 0.0 0.9 0.00 0.00 0.00 63 1020.5
20260906034525 73 245 0.0 1.7 0.00 0.00 0.00 63 1020.6
20260906034024 73 245 0.0 1.7 0.00 0.00 0.00 63 1020.5
20260906033523 73 70 0.0 0.9 0.00 0.00 0.00 63 1020.4
20260906033038 73 77 0.0 0.0 0.00 0.00 0.00 63 1020.4
20260906032527 73 80 0.0 0.9 0.00 0.00 0.00 63 1020.3
20260906032024 73 80 0.0 1.7 0.00 0.00 0.00 63 1020.4
20260906031522 73 136 0.0 0.0 0.00 0.00 0.00 64 1020.3
20260906031024 73 152 0.0 0.0 0.00 0.00 0.00 64 1020.4
20260906030523 73 200 0.0 0.9 0.00 0.00 0.00 64 1020.3
20260906030021 73 153 0.0 0.9 0.00 0.00 0.00 64 1020.3
20260906025522 72 168 0.0 0.9 0.00 0.00 0.00 65 1020.2
20260906025022 72 117 0.0 0.0 0.00 0.00 0.00 66 1020.3
20260906024520 72 122 0.0 0.9 0.00 0.00 0.00 67 1020.2
20260906024022 72 121 0.0 0.0 0.00 0.00 0.00 68 1020.1
20260906023521 72 121 0.0 0.9 0.00 0.00 0.00 68 1020.2
20260906023019 72 122 0.0 0.9 0.00 0.00 0.00 67 1020.1
20260906022518 72 134 0.0 0.0 0.00 0.00 0.00 68 1020.1
20260906022018 72 134 0.0 0.0 0.00 0.00 0.00 67 1020.0
20260906021518 72 134 0.0 0.0 0.00 0.00 0.00 66 1020.1
20260906021016 72 134 0.0 0.9 0.00 0.00 0.00 66 1020.1
20260906020517 72 134 0.0 0.9 0.00 0.00 0.00 66 1020.0
20260906020016 72 134 0.0 0.0 0.00 0.00 0.00 66 1020.0
20260906015516 72 134 0.0 0.0 0.00 0.00 0.00 67 1020.0
20260906015015 73 134 0.0 0.0 0.00 0.00 0.00 66 1020.0
20260906014515 72 134 0.0 0.0 0.00 0.00 0.00 67 1019.9
20260906014016 73 129 0.0 0.0 0.00 0.00 0.00 67 1019.9
20260906013513 73 129 0.0 0.0 0.00 0.00 0.00 67 1020.0
20260906013013 73 129 0.0 0.0 0.00 0.00 0.00 67 1020.0
20260906012515 73 265 0.0 0.0 0.00 0.00 0.00 65 1020.0
20260906012012 73 266 0.0 0.0 0.00 0.00 0.00 66 1020.0
20260906011515 73 266 0.0 0.0 0.00 0.00 0.00 66 1020.0
20260906011011 74 266 0.0 0.9 0.00 0.00 0.00 66 1019.9
20260906010511 73 266 0.0 0.9 0.00 0.00 0.00 66 1019.9
20260906010016 73 266 0.0 0.0 0.00 0.00 0.00 66 1019.8
20260906005512 74 266 0.0 0.0 0.00 0.00 0.00 65 1019.8
20260906005009 74 266 0.0 0.9 0.00 0.00 0.00 65 1019.8
20260906004509 74 266 0.0 0.0 0.00 0.00 0.00 65 1019.9
20260906004012 74 266 0.0 0.0 0.00 0.00 0.00 64 1019.8
20260906003508 75 266 0.0 0.0 0.00 0.00 0.00 64 1019.8
20260906003008 75 266 0.0 0.9 0.00 0.00 0.00 64 1019.9
20260906002507 75 266 0.0 0.9 0.00 0.00 0.00 65 1019.8
20260906002008 75 266 0.0 0.0 0.00 0.00 0.00 64 1019.8
20260906001508 75 266 0.0 0.0 0.00 0.00 0.00 64 1019.8
20260906001007 75 266 0.0 0.9 0.00 0.00 0.00 63 1019.8
20260906000507 75 266 0.0 0.9 0.00 0.00 0.00 62 1019.8
20260906000007 75 313 0.0 0.0 0.00 0.00 0.00 62 1019.8
20260905235507 75 312 0.0 0.0 0.00 0.00 0.00 63 1019.7
20260905235006 75 312 0.0 0.0 0.00 0.00 0.00 63 1019.6
20260905234506 75 312 0.0 0.0 0.00 0.00 0.00 63 1019.6
20260905234004 75 312 0.0 0.0 0.00 0.00 0.00 63 1019.6
20260905233504 75 312 0.0 0.0 0.00 0.00 0.00 63 1019.5
20260905233003 75 313 0.0 0.9 0.00 0.00 0.00 63 1019.5
20260905232502 75 315 0.0 0.9 0.00 0.00 0.00 64 1019.5
20260905232002 75 337 0.0 0.0 0.00 0.00 0.00 64 1019.5
20260905231502 75 353 0.0 0.0 0.00 0.00 0.00 64 1019.5
20260905231001 75 354 0.0 0.0 0.00 0.00 0.00 64 1019.4
20260905230600 75 354 0.0 0.0 0.00 0.00 0.00 64 1019.4
20260905230106 75 355 0.0 0.9 0.00 0.00 0.00 64 1019.4
20260905225558 74 355 0.0 0.9 0.00 0.00 0.00 65 1019.3
20260905225058 74 354 0.0 0.9 0.00 0.00 0.00 65 1019.4
20260905224615 74 11 0.0 0.9 0.00 0.00 0.00 66 1019.2
20260905224056 74 77 0.0 0.9 0.00 0.00 0.00 67 1019.2
20260905223556 74 77 0.0 0.9 0.00 0.00 0.00 67 1019.2
20260905223106 73 135 0.0 0.0 0.00 0.00 0.00 68 1019.2
20260905222556 73 135 0.0 0.0 0.00 0.00 0.00 68 1019.2
20260905222054 73 135 0.0 0.9 0.00 0.00 0.00 69 1019.1
20260905221558 73 136 0.0 0.9 0.00 0.00 0.00 69 1019.2
20260905221054 73 135 0.0 0.0 0.00 0.00 0.00 69 1019.2
20260905220556 74 135 0.0 0.0 0.00 0.00 0.00 69 1019.1
20260905215553 74 135 0.0 0.0 0.00 0.00 0.00 69 1019.1
20260905215055 74 135 0.0 0.0 0.00 0.00 0.00 69 1019.0
20260905214552 74 135 0.0 0.0 0.00 0.00 0.00 69 1019.1
20260905214051 75 135 0.0 0.9 0.00 0.00 0.00 69 1019.1
20260905213551 75 135 0.0 0.0 0.00 0.00 0.00 68 1019.2
20260905213057 75 135 0.0 0.0 0.00 0.00 0.00 68 1019.1
20260905212551 75 135 0.0 0.0 0.00 0.00 0.00 67 1019.2
20260905212050 76 135 0.0 0.0 0.00 0.00 0.00 66 1019.2
20260905211550 75 135 0.0 0.0 0.00 0.00 0.00 66 1019.2
20260905211050 75 135 0.0 0.0 0.00 0.00 0.00 67 1019.1
20260905210550 75 135 0.0 0.0 0.00 0.00 0.00 66 1019.0
20260905210059 75 135 0.0 0.0 0.00 0.00 0.00 66 1019.0
20260905205548 75 135 0.0 0.0 0.00 0.00 0.00 66 1019.0
20260905205048 75 135 0.0 0.0 0.00 0.00 0.00 66 1019.0
20260905204548 75 135 0.0 0.0 0.00 0.00 0.00 65 1019.0
20260905204048 76 135 0.0 0.0 0.00 0.00 0.00 66 1019.0
20260905203547 76 135 0.0 0.0 0.00 0.00 0.00 65 1019.0
20260905203048 76 135 0.0 0.0 0.00 0.00 0.00 65 1018.9
20260905202545 76 135 0.0 0.0 0.00 0.00 0.00 64 1018.8
20260905202045 77 135 0.0 0.0 0.00 0.00 0.00 64 1018.9
20260905201547 77 135 0.0 0.0 0.00 0.00 0.00 64 1018.8
20260905201044 77 135 0.0 0.9 0.00 0.00 0.00 62 1018.8
20260905200544 77 135 0.0 0.9 0.00 0.00 0.00 62 1018.7
20260905200044 77 135 0.0 0.0 0.00 0.00 0.00 62 1018.6
20260905195547 78 135 0.0 0.0 0.00 0.00 0.00 61 1018.6
20260905195042 78 135 0.0 0.0 0.00 0.00 0.00 61 1018.5
20260905194547 79 135 0.0 0.0 0.00 0.00 0.00 61 1018.3
20260905194042 79 135 0.0 0.0 0.00 0.00 0.00 61 1018.4
20260905193541 79 135 0.0 0.0 0.00 0.00 0.00 60 1018.4
20260905193041 79 135 0.0 0.9 0.00 0.00 0.00 59 1018.4
20260905192540 79 124 0.0 0.9 0.00 0.00 0.00 59 1018.3
20260905192041 79 121 0.0 0.9 0.00 0.00 0.00 59 1018.2
20260905191539 79 120 0.0 0.9 0.00 0.00 0.00 60 1018.1
20260905191039 79 120 0.0 0.9 0.00 0.00 0.00 59 1018.1
20260905190539 79 81 0.0 0.9 0.00 0.00 0.00 59 1018.1
20260905190039 79 94 0.0 0.0 0.00 0.00 0.00 59 1018.0
20260905185537 79 94 0.0 0.0 0.00 0.00 0.00 59 1017.9
20260905185036 79 89 0.0 0.0 0.00 0.00 0.00 59 1017.8
20260905184547 79 89 0.0 0.0 0.00 0.00 0.00 58 1017.8
20260905184035 79 89 0.0 0.0 0.00 0.00 0.00 58 1017.7
20260905183534 80 89 0.0 0.0 0.00 0.00 0.00 58 1017.5
20260905183034 80 89 0.0 0.0 0.00 0.00 0.00 58 1017.4
20260905182533 81 86 0.0 0.9 0.00 0.00 0.00 57 1017.4
20260905182033 81 86 0.0 0.0 0.00 0.00 0.00 56 1017.4
20260905181532 81 86 0.0 0.9 0.00 0.00 0.00 55 1017.3
20260905181032 81 83 0.0 4.3 0.00 0.00 0.00 55 1017.3
20260905180530 82 79 0.0 4.3 0.00 0.00 0.00 55 1017.3
20260905180037 82 128 0.0 3.5 0.00 0.00 0.00 55 1017.2
20260905175529 82 82 0.0 3.5 0.00 0.00 0.00 55 1017.0
20260905175029 82 134 0.0 2.6 0.00 0.00 0.00 55 1017.0
20260905174529 82 148 0.0 2.6 0.00 0.00 0.00 54 1016.8
20260905174029 82 85 0.0 7.8 0.00 0.00 0.00 54 1016.7
20260905173529 83 141 0.0 10.4 0.00 0.00 0.00 54 1016.7
20260905173032 83 146 0.0 10.4 0.00 0.00 0.00 54 1016.6
20260905172529 83 94 0.0 3.5 0.00 0.00 0.00 55 1016.6
20260905172028 84 176 0.0 6.1 0.00 0.00 0.00 54 1016.6
20260905171530 84 134 0.9 6.1 0.00 0.00 0.00 53 1016.4
20260905171028 85 98 0.9 5.2 0.00 0.00 0.00 53 1016.5
20260905170528 85 119 0.9 4.3 0.00 0.00 0.00 53 1016.4
20260905170028 86 132 0.0 2.6 0.00 0.00 0.00 53 1016.4
20260905165526 86 290 0.0 0.0 0.00 0.00 0.00 54 1016.5
20260905165028 86 150 0.0 0.9 0.00 0.00 0.00 55 1016.3
20260905164530 86 150 0.0 0.9 0.00 0.00 0.00 56 1016.2
20260905164025 87 142 0.0 0.0 0.00 0.00 0.00 56 1016.0
20260905163528 87 171 0.0 0.9 0.00 0.00 0.00 55 1016.0
20260905163027 87 172 0.0 0.9 0.00 0.00 0.00 54 1015.8
20260905162528 87 143 0.0 0.9 0.00 0.00 0.00 53 1015.7
20260905162025 88 145 0.0 0.9 0.00 0.00 0.00 53 1015.7
20260905161524 88 122 0.0 0.9 0.00 0.00 0.00 51 1015.8
20260905161024 88 141 0.0 0.9 0.00 0.00 0.00 51 1015.7
20260905160524 88 141 0.0 0.9 0.00 0.00 0.00 51 1015.7
20260905160024 89 77 0.0 0.9 0.00 0.00 0.00 50 1015.7
20260905155526 89 140 0.0 1.7 0.00 0.00 0.00 50 1015.6
20260905155023 90 145 0.0 0.0 0.00 0.00 0.00 50 1015.5
20260905154522 90 143 0.0 0.0 0.00 0.00 0.00 49 1015.6
20260905154032 90 153 0.0 1.7 0.00 0.00 0.00 49 1015.6
20260905153523 90 113 0.0 1.7 0.00 0.00 0.00 49 1015.6
20260905153022 91 113 0.0 0.9 0.00 0.00 0.00 48 1015.7
20260905152525 91 173 0.0 2.6 0.00 0.00 0.00 48 1015.7
20260905152022 92 124 0.0 2.6 0.00 0.00 0.00 46 1015.7
20260905151522 92 110 0.0 1.7 0.00 0.00 0.00 48 1015.7
20260905151022 92 131 0.0 1.7 0.00 0.00 0.00 47 1015.6
20260905150527 92 105 0.0 2.6 0.00 0.00 0.00 49 1015.6
20260905150021 92 149 0.0 3.5 0.00 0.00 0.00 49 1015.5
20260905145520 91 214 0.0 3.5 0.00 0.00 0.00 50 1015.5
20260905145021 92 79 0.0 0.9 0.00 0.00 0.00 51 1015.4
20260905144524 92 127 0.0 2.6 0.00 0.00 0.00 51 1015.4
20260905144020 92 94 0.0 3.5 0.00 0.00 0.00 52 1015.4
20260905143519 92 143 0.0 3.5 0.00 0.00 0.00 54 1015.4
20260905143020 92 134 0.0 0.9 0.00 0.00 0.00 53 1015.4
20260905142519 92 157 0.0 0.9 0.00 0.00 0.00 51 1015.4
20260905142019 92 65 0.0 2.6 0.00 0.00 0.00 50 1015.4
20260905141519 92 139 0.0 2.6 0.00 0.00 0.00 54 1015.4
20260905141019 93 75 0.0 0.9 0.00 0.00 0.00 50 1015.5
20260905140520 92 16 0.0 3.5 0.00 0.00 0.00 49 1015.5
20260905140017 92 310 0.0 3.5 0.00 0.00 0.00 48 1015.6
20260905135515 91 328 0.0 0.9 0.00 0.00 0.00 50 1015.6
20260905135015 91 100 0.0 0.9 0.00 0.00 0.00 49 1015.6
20260905134518 91 113 0.0 1.7 0.00 0.00 0.00 50 1015.6
20260905134014 91 311 0.0 1.7 0.00 0.00 0.00 47 1015.7
20260905133515 91 266 0.0 1.7 0.00 0.00 0.00 48 1015.6
20260905133022 91 289 0.0 3.5 0.00 0.00 0.00 48 1015.6
20260905132514 91 297 0.0 3.5 0.00 0.00 0.00 47 1015.6
20260905132014 91 198 0.0 2.6 0.00 0.00 0.00 47 1015.6
20260905131522 91 131 0.0 2.6 0.00 0.00 0.00 47 1015.6
20260905131013 91 130 0.0 5.2 0.00 0.00 0.00 47 1015.6
20260905130513 90 120 0.0 5.2 0.00 0.00 0.00 46 1015.6
20260905130011 91 120 0.0 0.9 0.00 0.00 0.00 46 1015.8
20260905125508 90 141 0.0 0.9 0.00 0.00 0.00 47 1015.8
20260905125008 90 146 0.0 0.9 0.00 0.00 0.00 46 1015.9
20260905124508 90 23 0.0 0.9 0.00 0.00 0.00 45 1016.0
20260905124007 90 127 0.0 1.7 0.00 0.00 0.00 46 1016.1
20260905123508 90 296 0.0 2.6 0.00 0.00 0.00 46 1016.1
20260905123007 90 356 0.0 2.6 0.00 0.00 0.00 45 1016.1
20260905122507 90 254 0.0 0.9 0.00 0.00 0.00 46 1016.3
20260905122009 90 127 0.0 0.9 0.00 0.00 0.00 46 1016.2
20260905121506 90 140 0.0 2.6 0.00 0.00 0.00 45 1016.2
20260905121007 90 254 0.0 3.5 0.00 0.00 0.00 44 1016.1
20260905120510 90 27 0.0 3.5 0.00 0.00 0.00 45 1016.2
20260905120006 90 97 0.0 0.9 0.00 0.00 0.00 46 1016.3
20260905115505 89 288 0.0 0.9 0.00 0.00 0.00 43 1016.3
20260905115007 89 328 0.0 1.7 0.00 0.00 0.00 45 1016.3
20260905114505 89 22 0.0 0.0 0.00 0.00 0.00 43 1016.4
20260905114005 90 61 0.0 0.9 0.00 0.00 0.00 43 1016.3
20260905113505 90 125 0.0 0.9 0.00 0.00 0.00 45 1016.3
20260905113004 89 187 0.0 0.9 0.00 0.00 0.00 44 1016.3
20260905112503 89 135 0.0 0.9 0.00 0.00 0.00 46 1016.4
20260905112002 88 131 0.0 3.5 0.00 0.00 0.00 44 1016.4
20260905111505 88 312 0.0 2.6 0.00 0.00 0.00 43 1016.4
20260905111001 88 354 0.0 2.6 0.00 0.00 0.00 44 1016.4
20260905110559 88 356 0.0 1.7 0.00 0.00 0.00 44 1016.4
20260905110100 87 313 0.0 2.6 0.00 0.00 0.00 45 1016.3
20260905105558 87 342 0.0 2.6 0.00 0.00 0.00 45 1016.4
20260905105101 87 289 0.0 3.5 0.00 0.00 0.00 48 1016.5
20260905104556 86 315 0.0 3.5 0.00 0.00 0.00 46 1016.5
20260905104055 86 285 0.0 2.6 0.00 0.00 0.00 48 1016.4
20260905103554 86 40 0.0 2.6 0.00 0.00 0.00 48 1016.4
20260905103058 86 342 0.0 0.9 0.00 0.00 0.00 49 1016.5
20260905102554 85 339 0.0 0.9 0.00 0.00 0.00 50 1016.5
20260905102054 85 339 0.0 0.9 0.00 0.00 0.00 48 1016.5
20260905101602 85 337 0.0 0.9 0.00 0.00 0.00 49 1016.5
20260905101053 85 314 0.0 0.9 0.00 0.00 0.00 49 1016.6
20260905100554 85 349 0.0 0.9 0.00 0.00 0.00 50 1016.6
20260905100120 86 12 0.0 0.9 0.00 0.00 0.00 51 1016.7
20260905095552 86 27 0.0 0.9 0.00 0.00 0.00 48 1016.6
20260905095053 86 67 0.0 0.9 0.00 0.00 0.00 47 1016.6
20260905094553 86 321 0.0 0.0 0.00 0.00 0.00 45 1016.6
20260905094053 86 154 0.0 0.9 0.00 0.00 0.00 50 1016.5
20260905093551 86 129 0.0 0.9 0.00 0.00 0.00 47 1016.5
20260905093050 86 134 0.0 0.9 0.00 0.00 0.00 49 1016.5
20260905092549 85 134 0.0 0.9 0.00 0.00 0.00 46 1016.6
20260905092049 85 134 0.0 0.0 0.00 0.00 0.00 49 1016.6
20260905091557 85 134 0.0 0.9 0.00 0.00 0.00 48 1016.6
20260905091050 85 134 0.0 0.9 0.00 0.00 0.00 51 1016.4
20260905090551 85 133 0.0 0.9 0.00 0.00 0.00 52 1016.5
20260905090048 85 134 0.0 0.9 0.00 0.00 0.00 50 1016.6
20260905085547 85 134 0.0 0.9 0.00 0.00 0.00 51 1016.4
20260905085047 85 79 0.0 0.9 0.00 0.00 0.00 50 1016.5
20260905084551 85 100 0.0 0.9 0.00 0.00 0.00 53 1016.5
20260905084047 84 143 0.0 0.9 0.00 0.00 0.00 49 1016.4
20260905083547 85 94 0.0 0.9 0.00 0.00 0.00 50 1016.5
20260905083105 85 218 0.0 0.9 0.00 0.00 0.00 51 1016.4
20260905082547 85 153 0.0 0.9 0.00 0.00 0.00 51 1016.4
20260905082046 85 86 0.0 0.9 0.00 0.00 0.00 52 1016.4
20260905081545 84 135 0.0 0.0 0.00 0.00 0.00 53 1016.3
20260905081043 84 150 0.0 0.0 0.00 0.00 0.00 55 1016.2
20260905080543 83 150 0.0 0.0 0.00 0.00 0.00 54 1016.2
20260905080043 83 126 0.0 0.9 0.00 0.00 0.00 54 1016.2
20260905075541 83 131 0.0 0.9 0.00 0.00 0.00 57 1016.2
20260905075040 82 147 0.0 0.0 0.00 0.00 0.00 56 1016.3
20260905074538 81 155 0.0 0.9 0.00 0.00 0.00 58 1016.3
20260905074037 80 216 0.0 0.9 0.00 0.00 0.00 59 1016.2